Weather History for KGBD - July, 2013

Change the Weather History Date:

Friday, July 5, 2013

  Actual Average Record
Temperature  
Mean Temperature 82 °F -  
Max Temperature 96 °F 93 °F 107 °F (1964)
Min Temperature 69 °F 67 °F 52 °F (1972)
Cooling Degree Days 18    
Growing Degree Days 32 (Base 50)    
Moisture  
Dew Point 56 °F    
Average Humidity 43    
Maximum Humidity 64    
Minimum Humidity 26    
Precipitation  
Precipitation 0.00 in - - ()
Sea Level Pressure  
Sea Level Pressure 29.86 in    
Wind  
Wind Speed 19 mph (South)    
Max Wind Speed 28 mph    
Max Gust Speed 33 mph    
Visibility 10 miles    
Events      
Averages and records for this station are not official NWS values.
T = Trace of Precipitation, MM = Missing Value Source: NWS Daily Summary

Daily Weather History Graph

Daily Weather History Graph

Search for Another Location

Airport or City:

Trip Planner

Search our weather history database for the weather conditions in past years. The results will help you decide how hot, cold, wet, or windy it might be!

Date:

Astronomy

Jul. 05, 2013 Rise Set
Actual Time 6:17 AM CDT 9:02 PM CDT
Civil Twilight 5:46 AM CDT 9:33 PM CDT
Nautical Twilight 5:07 AM CDT 10:12 PM CDT
Astronomical Twilight 4:22 AM CDT 10:57 PM CDT
Moon 4:17 AM CDT (7/5) 6:59 PM CDT (7/5)
Length of Visible Light 15h 47m
Length of Day
14h 44m
Waning Crescent, 6% of the Moon is Illuminated
Jul 5
Waning Crescent
Jul 8
New
Jul 15
First Quarter
Jul 22
Full
Jul 29
Last Quarter

Hourly Weather History & Observations

Time (CDT) Temp. Heat Index Dew Point Humidity Pressure Visibility Wind Dir Wind Speed Gust Speed Precip Events Conditions
12:15 AM 75.2 °F - 53.6 °F 47% 29.92 in 10.0 mi SSE 18.4 mph - N/A   Clear
12:35 AM 75.2 °F - 53.6 °F 47% 29.91 in 10.0 mi SSE 18.4 mph 23.0 mph N/A   Clear
12:55 AM 75.2 °F - 53.6 °F 47% 29.91 in 10.0 mi South 19.6 mph 26.5 mph N/A   Clear
1:15 AM 73.4 °F - 53.6 °F 50% 29.91 in 10.0 mi SSE 15.0 mph 20.7 mph N/A   Clear
1:35 AM 73.4 °F - 53.6 °F 50% 29.92 in 10.0 mi South 16.1 mph - N/A   Clear
1:55 AM 73.4 °F - 55.4 °F 53% 29.91 in 10.0 mi South 19.6 mph 23.0 mph N/A   Clear
2:15 AM 73.4 °F - 55.4 °F 53% 29.92 in 10.0 mi South 16.1 mph 25.3 mph N/A   Scattered Clouds
2:35 AM 73.4 °F - 55.4 °F 53% 29.91 in 10.0 mi South 17.3 mph 24.2 mph N/A   Scattered Clouds
2:55 AM 73.4 °F - 55.4 °F 53% 29.91 in 10.0 mi South 16.1 mph 23.0 mph N/A   Partly Cloudy
3:15 AM 73.4 °F - 55.4 °F 53% 29.92 in 10.0 mi South 13.8 mph - N/A   Partly Cloudy
3:35 AM 71.6 °F - 55.4 °F 57% 29.91 in 10.0 mi South 16.1 mph - N/A   Clear
3:55 AM 71.6 °F - 55.4 °F 57% 29.90 in 10.0 mi South 15.0 mph - N/A   Clear
4:15 AM 71.6 °F - 55.4 °F 57% 29.90 in 10.0 mi South 15.0 mph - N/A   Clear
4:35 AM 71.6 °F - 55.4 °F 57% 29.90 in 10.0 mi South 15.0 mph - N/A   Clear
4:55 AM 71.6 °F - 55.4 °F 57% 29.90 in 10.0 mi South 16.1 mph - N/A   Clear
5:15 AM 71.6 °F - 55.4 °F 57% 29.90 in 10.0 mi South 13.8 mph 19.6 mph N/A   Clear
5:35 AM 69.8 °F - 55.4 °F 60% 29.90 in 10.0 mi South 15.0 mph - N/A   Clear
5:55 AM 69.8 °F - 55.4 °F 60% 29.89 in 10.0 mi South 15.0 mph 20.7 mph N/A   Clear
6:15 AM 69.8 °F - 55.4 °F 60% 29.90 in 10.0 mi South 16.1 mph 19.6 mph N/A   Clear
6:35 AM 69.8 °F - 55.4 °F 60% 29.90 in 10.0 mi South 16.1 mph 19.6 mph N/A   Clear
6:55 AM 69.8 °F - 57.2 °F 64% 29.90 in 10.0 mi South 15.0 mph - N/A   Clear
7:15 AM 69.8 °F - 57.2 °F 64% 29.90 in 10.0 mi South 18.4 mph 25.3 mph N/A   Clear
7:35 AM 71.6 °F - 57.2 °F 60% 29.90 in 10.0 mi South 21.9 mph 26.5 mph N/A   Clear
7:55 AM 71.6 °F - 57.2 °F 60% 29.90 in 10.0 mi South 23.0 mph 26.5 mph N/A   Clear
8:15 AM 73.4 °F - 57.2 °F 57% 29.90 in 10.0 mi South 24.2 mph 27.6 mph N/A   Clear
8:35 AM 75.2 °F - 57.2 °F 53% 29.91 in 10.0 mi South 24.2 mph 29.9 mph N/A   Clear
8:55 AM 75.2 °F - 57.2 °F 53% 29.91 in 10.0 mi South 20.7 mph 28.8 mph N/A   Clear
9:15 AM 75.2 °F - 57.2 °F 53% 29.91 in 10.0 mi South 20.7 mph 31.1 mph N/A   Clear
9:35 AM 77.0 °F - 57.2 °F 50% 29.90 in 10.0 mi South 25.3 mph 33.4 mph N/A   Clear
9:55 AM 78.8 °F - 57.2 °F 47% 29.90 in 10.0 mi South 19.6 mph 31.1 mph N/A   Clear
10:15 AM 80.6 °F 80.8 °F 57.2 °F 45% 29.89 in 10.0 mi South 21.9 mph - N/A   Clear
10:35 AM 80.6 °F 80.8 °F 57.2 °F 45% 29.89 in 10.0 mi South 25.3 mph 31.1 mph N/A   Clear
10:55 AM 82.4 °F 82.0 °F 57.2 °F 42% 29.89 in 10.0 mi South 19.6 mph 29.9 mph N/A   Clear
11:15 AM 84.2 °F 83.5 °F 57.2 °F 40% 29.89 in 10.0 mi South 21.9 mph 28.8 mph N/A   Clear
11:35 AM 84.2 °F 83.5 °F 57.2 °F 40% 29.89 in 10.0 mi South 21.9 mph 29.9 mph N/A   Clear
11:55 AM 86.0 °F 84.9 °F 57.2 °F 37% 29.88 in 10.0 mi South 21.9 mph 27.6 mph N/A   Clear
12:15 PM 87.8 °F 86.5 °F 57.2 °F 35% 29.87 in 10.0 mi South 20.7 mph 28.8 mph N/A   Clear
12:35 PM 87.8 °F 86.5 °F 57.2 °F 35% 29.87 in 10.0 mi South 19.6 mph 28.8 mph N/A   Clear
12:55 PM 89.6 °F 88.1 °F 57.2 °F 33% 29.87 in 10.0 mi South 17.3 mph 27.6 mph N/A   Clear
1:15 PM 89.6 °F 88.1 °F 57.2 °F 33% 29.87 in 10.0 mi South 19.6 mph 28.8 mph N/A   Clear
1:35 PM 91.4 °F 89.9 °F 57.2 °F 31% 29.86 in 10.0 mi SSE 19.6 mph 29.9 mph N/A   Clear
1:55 PM 91.4 °F 89.9 °F 57.2 °F 31% 29.85 in 10.0 mi South 21.9 mph 28.8 mph N/A   Clear
2:15 PM 93.2 °F 91.9 °F 57.2 °F 30% 29.85 in 10.0 mi South 18.4 mph 26.5 mph N/A   Clear
2:35 PM 91.4 °F 89.9 °F 57.2 °F 31% 29.84 in 10.0 mi SSE 19.6 mph 26.5 mph N/A   Clear
2:55 PM 93.2 °F 91.9 °F 57.2 °F 30% 29.84 in 10.0 mi South 19.6 mph - N/A   Clear
3:15 PM 95.0 °F 93.7 °F 57.2 °F 28% 29.83 in 10.0 mi SSE 19.6 mph 31.1 mph N/A   Clear
3:35 PM 95.0 °F 93.7 °F 57.2 °F 28% 29.82 in 10.0 mi SSE 24.2 mph 29.9 mph N/A   Clear
3:55 PM 95.0 °F 93.7 °F 57.2 °F 28% 29.82 in 10.0 mi South 24.2 mph 31.1 mph N/A   Clear
4:15 PM 95.0 °F 93.7 °F 57.2 °F 28% 29.81 in 10.0 mi SSE 27.6 mph - N/A   Clear
4:35 PM 96.8 °F 95.8 °F 57.2 °F 27% 29.81 in 10.0 mi SSE 23.0 mph 31.1 mph N/A   Clear
4:55 PM 95.0 °F 93.7 °F 57.2 °F 28% 29.80 in 10.0 mi South 20.7 mph - N/A   Clear
5:15 PM 95.0 °F 93.0 °F 55.4 °F 26% 29.80 in 10.0 mi South 17.3 mph 31.1 mph N/A   Clear
5:35 PM 93.2 °F 91.3 °F 55.4 °F 28% 29.80 in 10.0 mi South 21.9 mph 26.5 mph N/A   Clear
5:55 PM 93.2 °F 91.3 °F 55.4 °F 28% 29.79 in 10.0 mi SSE 21.9 mph 27.6 mph N/A   Clear
6:15 PM 93.2 °F 91.3 °F 55.4 °F 28% 29.78 in 10.0 mi SSE 21.9 mph 26.5 mph N/A   Clear
6:35 PM 93.2 °F 91.9 °F 57.2 °F 30% 29.78 in 10.0 mi SSE 23.0 mph 26.5 mph N/A   Clear
6:55 PM 93.2 °F 91.9 °F 57.2 °F 30% 29.78 in 10.0 mi SSE 19.6 mph 27.6 mph N/A   Clear
7:15 PM 91.4 °F 89.9 °F 57.2 °F 31% 29.79 in 10.0 mi SSE 18.4 mph - N/A   Clear
7:35 PM 91.4 °F 89.4 °F 55.4 °F 29% 29.78 in 10.0 mi SSE 18.4 mph 26.5 mph N/A   Clear
7:55 PM 89.6 °F 87.7 °F 55.4 °F 31% 29.79 in 10.0 mi SSE 19.6 mph - N/A   Clear
8:15 PM 89.6 °F 87.7 °F 55.4 °F 31% 29.80 in 10.0 mi SSE 17.3 mph - N/A   Clear
8:35 PM 87.8 °F 86.1 °F 55.4 °F 33% 29.80 in 10.0 mi SSE 16.1 mph 23.0 mph N/A   Clear
8:55 PM 87.8 °F 86.1 °F 55.4 °F 33% 29.81 in 10.0 mi SSE 18.4 mph 23.0 mph N/A   Clear
9:15 PM 86.0 °F 84.5 °F 55.4 °F 35% 29.81 in 10.0 mi SSE 19.6 mph 24.2 mph N/A   Clear
9:35 PM 84.2 °F 83.0 °F 55.4 °F 37% 29.82 in 10.0 mi SSE 16.1 mph 23.0 mph N/A   Clear
9:55 PM 84.2 °F 83.5 °F 57.2 °F 40% 29.82 in 10.0 mi SSE 18.4 mph - N/A   Clear
10:15 PM 82.4 °F 82.0 °F 57.2 °F 42% 29.83 in 10.0 mi SSE 20.7 mph 24.2 mph N/A   Clear
10:35 PM 82.4 °F 82.0 °F 57.2 °F 42% 29.84 in 10.0 mi SSE 23.0 mph 29.9 mph N/A   Clear
10:55 PM 80.6 °F 80.8 °F 57.2 °F 45% 29.84 in 10.0 mi SSE 25.3 mph 32.2 mph N/A   Clear
11:15 PM 80.6 °F 80.8 °F 57.2 °F 45% 29.84 in 10.0 mi SSE 20.7 mph 29.9 mph N/A   Clear
11:35 PM 78.8 °F - 57.2 °F 47% 29.84 in 10.0 mi SSE 24.2 mph 33.4 mph N/A   Clear
11:55 PM 78.8 °F - 57.2 °F 47% 29.84 in 10.0 mi SSE 21.9 mph 25.3 mph N/A   Clear